Find Local Weather

World > North America > United States > New Hampshire

New Castle, New Hampshire Regional Weather

Lat: 43.07N, Lon: 70.72W
Wx Zone: NHZ014
Feedback
Expires:201805230800;;391512
ASUS41 KBOX 230710
RWRBOX

REGIONAL WEATHER ROUNDUP
NATIONAL WEATHER SERVICE BOSTON/NORTON MA
300 AM EDT WED MAY 23 2018

NOTE:  "FAIR" INDICATES FEW OR NO CLOUDS BELOW 12,000 FEET WITH NO 
SIGNIFICANT WEATHER AND/OR OBSTRUCTIONS TO VISIBILITY.


MEZ002-015-021-024-NHZ003-005-008-011-012-014-VTZ005-008-230800-
NORTHERN NEW ENGLAND
  
CITY           SKY/WX    TMP DP  RH WIND       PRES   REMARKS
PORTLAND ME    CLOUDY    54  50  86 S5        29.86F                  
BANGOR ME      LGT RAIN  54  51  90 S6        29.86F                  
CONCORD NH     CLOUDY    54  50  86 S3        29.86F                  
MANCHESTER NH  CLOUDY    58  51  78 S3        29.85F                  
NASHUA NH      CLOUDY    55  53  93 CALM      29.87F                  
PORTSMOUTH NH  CLOUDY    55  51  87 CALM      29.85F                  
JAFFREY NH     CLOUDY    53  53 100 VRB7      29.88F FOG              
KEENE NH       CLOUDY    55  53  93 S6        29.87F                  
BURLINGTON VT  CLOUDY    57  53  86 S6        29.86S                  
MT. WASHINGTON LGT RAIN  37  37 100 NW36        N/A  VSB 0   WCI  24  
$$


SKY/WX - Weather  TMP - Temperature  DP - Dewpoint  RH - Relative Humidity
WIND - Wind Direction/Speed PRES - Barometric Pressure